Regional Weather Roundup
Issued by NWS

Home | Current Version | Previous Version | Text Only | Print | Product List | Glossary On
Versions: 1 2 3 4 5 6 7 8 9 10 11 12 13 14 15 16 17 18 19 20 21 22 23 24 25 26 27 28 29 30 31 32 33 34 35 36 37 38 39 40 41 42 43 44 45 46 47 48 49 50
000
ASUS43 KLSX 010310
RWRMO

WEATHER SUMMARY FOR MISSOURI
NATIONAL WEATHER SERVICE SPRINGFIELD MO
1000 PM CDT FRI SEP 30 2016

NOTE: "FAIR" INDICATES FEW OR NO CLOUDS BELOW 12,000 FEET WITH NO
       SIGNIFICANT WEATHER AND/OR OBSTRUCTIONS TO VISIBILITY.
       CURRENT SKY AND/OR WEATHER CONDITIONS ARE NOT AVAILABLE FOR
       CHILLICOTHE AND FARMINGTON.

MOZ001>031-035>038-043-044-053-054-010400-
...NORTHERN AND WESTERN MISSOURI...

CITY           SKY/WX    TMP DP  RH WIND       PRES   REMARKS
KANSAS CTY INT CLEAR     60  52  74 E8        30.13S
KANSAS C DTWN  CLEAR     63  54  72 E8        30.12R
LEE`S SUMMIT   CLEAR     61  54  77 NE6       30.14R
ST JOSEPH      CLEAR     57  52  83 CALM      30.14S
CHILLICOTHE      N/A     62  56  80 CALM      30.14S
KIRKSVILLE     CLOUDY    61  56  83 N8        30.13F

$$
MOZ066>068-077>081-088>096-101>105-010400-
...SOUTHWEST MISSOURI...

CITY           SKY/WX    TMP DP  RH WIND       PRES   REMARKS
SPRINGFIELD    CLEAR     56  52  86 CALM      30.10S
JOPLIN         CLEAR     57  55  93 CALM      30.11S
BRANSON        CLEAR     57  54  88 CALM      30.11F

$$
MOZ032>034-039>042-045>050-055>058-069>072-010400-
...CENTRAL MISSOURI...

CITY           SKY/WX    TMP DP  RH WIND       PRES   REMARKS
COLUMBIA       CLOUDY    63  57  81 N8        30.11S
JEFFERSON CITY CLOUDY    64  56  75 N7        30.10S
ROLLA          CLOUDY    61  56  83 N5        30.09S
SEDALIA        CLEAR     59  54  83 NE3       30.13S
WHITEMAN AFB   CLEAR     58  57  97 CALM      30.11S
OSAGE BEACH    MOCLDY    58  56  93 CALM      30.12R

$$
MOZ051-052-059>065-010400-
...EAST CENTRAL MISSOURI...

CITY           SKY/WX    TMP DP  RH WIND       PRES   REMARKS
ST LOUIS INTL  LGT RAIN  64  58  80 NW9       30.06S
SPIRIT OF STL  CLOUDY    63  60  90 W3        30.06S
ST CHARLES     CLOUDY    63  61  93 NW9       30.05S

$$
MOZ072>076-082>087-097>100-106>115-010400-
...SOUTH CENTRAL AND SOUTHEAST MISSOURI...

CITY           SKY/WX    TMP DP  RH WIND       PRES   REMARKS
CAPE GIRARDEAU MOCLDY    60  57  89 W6        30.03S
FARMINGTON     CLOUDY    61  58  90 NW6       30.08R
POPLAR BLUFF   PTCLDY    59  57  93 NW3       30.06S
WEST PLAINS    CLOUDY    63  55  75 N3        30.11S

$$




USA.gov is the U.S. government's official web portal to all federal, state and local government web resources and services.